Location: Mercato San Severino
(40.7833°N, 14.7667°E)
Time: 16:52:16
(UTC+00:00)

Daily predictions for brighter satellites

Satellite Brightness Start Highest point End
(mag) Time Altitude Azimuth Time Altitude Azimuth Time Altitude Azimuth
Cosmos 1371 Rocket 4.2 18:59:51 10° SSW 19:05:01 77° WNW 19:10:13 10° NNE
Cosmos 2227 Rocket 4.5 19:00:58 10° NW 19:05:10 22° W 19:09:22 10° SSW
Cosmos 1420 Rocket 4.0 19:00:36 10° S 19:05:40 60° ESE 19:10:48 10° NNE
Cosmos 1190 Rocket 4.1 19:01:48 10° NNW 19:07:08 82° ENE 19:12:26 10° SSE
Lacrosse 5 rocket 2.8 19:07:14 10° SSE 19:09:15 14° ESE 19:11:15 10° E
Okean 2 3.6 19:05:22 10° SSE 19:09:19 49° E 19:13:16 10° NNE
Cosmos 1707 3.6 19:06:17 10° SSE 19:09:43 31° E 19:13:10 10° NNE
Okean 1 Rocket 3.6 19:07:22 10° N 19:11:31 41° ENE 19:15:39 10° SSE
Cosmos 220 Rocket 3.9 19:07:55 10° SSW 19:12:13 76° ESE 19:16:30 10° NNE
Resurs 1-3 3.6 19:10:55 10° SSE 19:15:18 82° ENE 19:19:43 10° N
Cosmos 2333 Rocket 4.1 19:16:08 10° E 19:16:28 10° E 19:16:48 10° E
Cosmos 1378 Rocket 3.5 19:12:58 10° S 19:17:16 75° E 19:21:39 10° N
USA 238 DEB 4.0 19:11:03 10° SW 19:17:32 73° NW 19:24:23 10° NNE
USA 238 4.0 19:11:10 10° SW 19:17:39 74° NW 19:24:29 10° NNE
SL-24 DEB 4.3 19:13:07 10° S 19:17:51 88° W 19:22:38 10° N
Cosmos 1605 Rocket 4.2 19:14:31 10° N 19:20:53 63° E 19:27:10 10° SSE
Aureole 2 Rocket 4.4 19:19:50 10° WNW 19:21:12 14° W 19:22:35 10° SW
BREEZE-M DEB (TANK) 2.0 19:21:22 10° SW 19:23:38 54° SE 19:26:43 10° ENE
Cosmos 1238 4.3 19:20:05 10° S 19:23:42 78° E 19:26:48 10° N
USA 186 4.3 19:22:53 10° SW 19:24:46 17° W 19:26:45 10° NW
Cosmos 2285 Rocket 4.0 19:18:47 10° SSW 19:25:12 78° ESE 19:31:39 10° NNE
SPOT 3 Rocket 3.8 19:20:54 10° SSE 19:25:53 53° ENE 19:30:56 10° N
CENTAUR R/B 3.0 19:20:13 10° SW 19:25:57 67° NW 19:32:51 10° NNE
Cosmos 2219 Rocket 4.1 19:26:42 10° ESE 19:27:50 11° E 19:28:59 10° E
Cosmos 1400 Rocket 4.1 19:25:51 10° NNW 19:29:28 39° W 19:33:04 10° SSW
Cosmos 1626 4.2 19:29:46 10° ESE 19:31:04 12° E 19:32:22 10° ENE
Cosmos 1953 4.0 19:29:17 10° NNE 19:32:14 19° ENE 19:34:41 12° ESE
NOSS 8 (A) 4.2 19:31:16 10° SSW 19:34:57 65° ESE 19:37:58 10° NE
ERS-2 4.2 19:34:26 10° N 19:37:40 30° WNW 19:40:52 10° SW
Ariane Rocket 3.5 19:34:24 10° S 19:39:25 60° WSW 19:44:28 10° NNW
Cosmos 676 Rocket 4.1 19:34:41 10° NNW 19:40:03 85° WSW 19:45:15 11° SSE
Cosmos 1954 Rocket 4.1 19:34:57 10° NNW 19:40:19 82° WSW 19:45:32 10° SSE
ATLAS 2A CENTAUR R/B 4.2 19:33:31 10° SW 19:44:53 20° S 19:48:54 14° SSE
BREEZE-M DEB (TANK) 4.4 19:41:45 10° NW 19:45:15 22° N 19:47:10 10° ENE
IGS 5A 3.5 19:42:51 10° S 19:46:59 83° WSW 19:51:10 10° NNW
Cosmos 292 Rocket 4.0 19:42:12 10° SSW 19:47:02 78° WNW 19:51:53 10° NNE
Cosmos 1025 Rocket 4.4 19:45:53 16° SE 19:48:05 23° E 19:51:32 10° NE
SL-16 R/B 2.4 19:43:32 10° SSW 19:49:11 77° WNW 19:54:53 10° NNE
KORONAS-FOTON 4.4 19:46:44 16° SSE 19:49:18 36° E 19:52:48 10° NNE
Cosmos 2360 Rocket 2.4 19:44:06 10° S 19:49:28 47° ESE 19:54:52 10° NE
Cosmos 2322 Rocket 2.2 19:45:38 10° SSW 19:51:20 86° ESE 19:57:05 10° NNE
CARTOSAT-1 4.4 19:50:28 17° SE 19:53:13 36° ENE 19:57:10 10° N
Resurs 01 Rocket 1.9 19:49:36 10° S 19:53:58 67° W 19:58:22 10° NNW
OBJECT-B 3.9 19:54:25 10° WSW 19:55:12 11° W 19:56:00 10° WNW
USA 245 4.1 19:52:52 17° SSE 19:56:24 60° ENE 20:01:54 10° N
Cosmos 1461 4.2 19:53:28 10° NNW 19:57:09 28° NE 19:59:45 15° E
USA 81 4.0 19:52:39 10° N 19:57:57 79° E 20:02:34 14° S
Cosmos 1975 Rocket 3.0 19:57:45 13° S 20:01:29 63° E 20:05:50 10° NNE
Cosmos 1110 Rocket 4.2 19:56:50 10° S 20:01:46 48° ESE 20:06:45 10° NNE
Meteor 1-16 Rocket 4.4 19:58:28 10° N 20:03:47 52° ENE 20:07:15 21° SE
JB-3 4.4 20:00:26 10° NNE 20:04:22 56° E 20:07:14 18° S
SPOT 5 3.7 20:02:18 19° SE 20:05:27 38° ENE 20:10:02 10° N
Cosmos 1674 2.6 20:03:31 19° S 20:06:01 60° E 20:09:41 10° NNE
Cosmos 1470 4.0 20:03:02 10° NNW 20:06:47 40° W 20:10:28 10° SSW
COSMOS 2428 4.0 20:06:24 19° ESE 20:07:56 21° E 20:12:04 10° NE
ATLAS CENTAUR R/B 3.6 20:06:05 10° N 20:09:08 18° NE 20:12:14 10° E
Cosmos 2322 4.5 20:06:44 20° SSE 20:09:39 31° ESE 20:14:34 10° NE
Cosmos 2237 4.2 20:07:11 10° SSW 20:12:52 88° WNW 20:18:37 10° NNE
Terra 2.9 20:10:29 20° ESE 20:12:54 30° ENE 20:17:02 10° N
Cosmos 1726 4.0 20:16:52 10° NNW 20:19:57 26° W 20:23:01 10° SSW
Lacrosse 5 2.3 20:17:11 10° NW 20:22:07 52° SW 20:24:51 25° SSE
Cosmos 1315 Rocket 4.4 20:18:56 10° NNW 20:22:38 32° W 20:26:15 10° SSW
Cosmos 1452 Rocket 4.4 20:19:40 10° SW 20:24:47 51° WNW 20:29:56 10° N
Cosmos 405 4.4 20:24:52 10° NNE 20:27:40 23° ENE 20:28:05 22° E
Cosmos 1844 Rocket 2.8 20:22:11 10° NNW 20:27:50 63° ENE 20:30:54 27° SE
SL-8 R/B 4.4 20:24:46 10° NW 20:29:26 50° NNE 20:33:01 16° E
ARIANE 5 R/B 2.6 20:29:11 29° SSE 20:31:28 89° WSW 20:35:58 10° NNW
Cosmos 2100 Rocket 4.0 20:25:48 10° N 20:32:13 88° E 20:36:23 23° S
Cosmos 1340 3.1 20:32:11 38° SE 20:32:53 43° E 20:36:28 10° NNE
ATLAS 3B R/B 2.6 20:30:41 10° SSW 20:37:04 60° ESE 20:43:38 10° NE
Cosmos 1850 Rocket 4.2 20:32:03 10° NNW 20:37:19 69° WSW 20:40:12 27° S
SPOT 1/Viking Rocket 4.2 20:33:46 17° S 20:37:29 49° W 20:42:29 10° NNW
Meteor 2-5 Rocket 4.2 20:36:28 29° SE 20:38:35 42° E 20:43:48 10° NNE
H-2A R/B 3.9 20:35:06 10° NNE 20:39:00 41° E 20:39:42 38° SE
Cosmos 1908 3.2 20:35:39 10° N 20:39:32 77° W 20:40:58 37° S
Geosat 3.9 20:37:26 31° SSE 20:39:54 89° ENE 20:44:58 10° NNW
FALCON 9 DEB 2.6 20:40:01 62° SSW 20:40:23 74° SE 20:43:29 10° NE
Cosmos 2263 Rocket 4.2 20:36:36 10° NW 20:40:41 21° W 20:44:45 10° SSW
Spot 2 Rocket 3.8 20:40:28 24° S 20:43:26 62° WSW 20:48:29 10° NNW
Cosmos 1544 Rocket 3.5 20:42:16 10° N 20:46:45 85° E 20:48:22 39° SSE
ERS-1 Rocket 2.9 20:44:30 32° SSE 20:46:55 86° WSW 20:52:00 10° NNW
Lacrosse 5 rocket 1.7 20:44:20 10° WSW 20:47:58 56° NW 20:51:31 10° NE
Cosmos 2333 4.1 20:43:44 15° SSW 20:48:30 81° ESE 20:54:15 10° NNE
Cosmos 1331 Rocket 4.2 20:43:20 10° SSW 20:48:32 70° WNW 20:53:49 10° NNE
FALCON 9 DEB 2.8 20:50:01 75° ENE 20:50:01 75° ENE 20:52:55 10° NE
Cosmos 2173 Rocket 4.2 20:43:48 10° N 20:50:11 73° W 20:54:11 24° S
Cosmos 1455 Rocket 3.8 20:47:13 10° NNW 20:51:32 49° W 20:53:47 25° SSW
Cosmos 2016 Rocket 3.9 20:47:12 10° N 20:53:20 79° E 20:56:17 33° SSE
Cosmos 2333 Rocket 2.1 20:55:53 22° SSW 20:59:46 82° ESE 21:05:32 10° NNE
BREEZE-M DEB (TANK) 2.8 20:57:58 10° W 21:00:23 46° NNW 21:04:58 10° NE
USA 215 3.2 20:55:33 10° NE 21:02:01 59° SE 21:08:25 10° SSW
Cosmos 1725 Rocket 3.9 20:59:16 10° N 21:05:29 84° E 21:08:12 36° S
Cosmos 1626 3.3 21:04:14 25° SW 21:05:50 39° WNW 21:09:20 10° N
Cosmos 1302 Rocket 3.9 21:04:49 31° SSW 21:07:24 87° ESE 21:12:40 10° NNE
Cosmos 1953 3.9 21:05:04 10° NNW 21:08:38 30° W 21:10:21 22° SW
SL-14 R/B 3.6 21:08:38 41° SW 21:09:51 63° W 21:13:52 10° N
Cosmos 2219 Rocket 2.1 21:07:37 27° SSW 21:10:51 86° ESE 21:16:34 10° NNE
Meteor 2-10 Rocket 4.1 21:07:48 10° N 21:12:36 41° ENE 21:13:41 36° ESE
Cosmos 1844 3.8 21:09:14 10° NNW 21:14:45 66° WSW 21:16:41 40° S
Cosmos 1536 Rocket 3.8 21:15:05 41° SSW 21:16:31 69° W 21:20:59 10° N
Meteor 1-24 Rocket 3.5 21:21:06 45° S 21:22:48 83° E 21:28:15 10° N
DNEPR-1 R/B 3.5 21:21:48 10° NNW 21:26:03 77° ENE 21:26:37 64° ESE
Cosmos 2237 Rocket 2.9 21:27:21 33° ESE 21:27:25 33° ESE 21:32:25 10° NE
Cosmos 389 Rocket 3.6 21:27:38 10° N 21:30:14 35° NE 21:30:14 35° NE
Cosmos 2360 Rocket 4.2 21:29:01 10° WSW 21:33:41 26° NW 21:38:22 10° N
Cosmos 1461 4.2 21:32:38 10° NW 21:36:05 26° WSW 21:36:05 26° WSW
Cosmos 2228 3.0 21:32:20 10° N 21:36:44 65° E 21:36:56 64° E
Cosmos 1486 Rocket 4.0 21:39:06 10° NNW 21:44:18 68° ENE 21:45:12 56° ESE
Cosmos 1455 3.4 21:42:43 10° N 21:45:44 33° ENE 21:45:44 33° ENE
ATLAS CENTAUR R/B 1.7 21:43:59 10° NW 21:48:20 61° WSW 21:48:22 61° WSW
Terra 3.2 21:49:22 25° WSW 21:50:35 28° W 21:54:40 10° NW
COSMOS 2428 3.3 21:48:21 24° SW 21:51:43 56° WNW 21:57:23 10° NNE
Cosmos 968 Rocket 3.3 21:47:41 10° NNW 21:52:48 76° WSW 21:53:28 65° SSW
Cosmos 1300 4.2 21:51:09 10° NNW 21:54:26 28° W 21:54:30 28° W
Cosmos 1992 Rocket 3.9 21:54:04 59° SSW 21:55:04 86° WNW 22:00:20 10° NNE
ATLAS CENTAUR R/B 3.0 21:59:32 49° ESE 21:59:41 49° ESE 22:09:09 10° NE
Cosmos 2278 Rocket 2.4 21:57:11 10° NNW 22:02:49 63° ENE 22:04:01 50° ESE
Cosmos 2058 Rocket 3.5 22:03:07 10° N 22:07:18 52° ENE 22:07:18 52° ENE
Cosmos 1346 Rocket 3.8 22:11:16 38° W 22:11:24 38° WNW 22:15:11 10° N
SL-8 R/B 4.4 22:07:24 10° WNW 22:10:57 40° WSW 22:10:57 40° WSW
GEOS 3 Rocket 3.6 22:11:18 64° SE 22:12:12 90° NW 22:17:35 10° NW
Cosmos 967 Rocket 4.4 22:07:56 10° NW 22:14:17 73° WSW 22:15:34 57° S
Cosmos 1726 Rocket 3.6 22:10:34 10° N 22:14:53 74° WNW 22:14:53 74° WNW
NOSS 0 Rocket 4.1 22:16:43 40° SW 22:19:00 71° WNW 22:25:15 10° NNE
Cosmos 1891 Rocket 4.4 22:13:54 10° N 22:20:06 86° E 22:21:24 59° SSE
SL-4 R/B 3.1 22:22:18 35° NE 22:22:18 35° NE 22:24:35 10° NE
NOSS 3-1 (C) 4.4 22:25:09 27° E 22:25:09 27° E 22:29:05 10° NE
Cosmos 1513 Rocket 4.3 22:19:17 10° N 22:25:23 90° WSW 22:26:33 61° S
Lacrosse 5 rocket 4.4 22:26:31 10° NW 22:27:44 11° NNW 22:28:58 10° N
ATLAS 3B R/B 4.3 22:22:27 10° WSW 22:28:09 30° NW 22:34:02 10° NNE
Cosmos 1606 Rocket 4.5 22:25:11 10° NNW 22:29:16 39° W 22:29:16 39° W
Cosmos 1892 Rocket 4.0 22:29:32 53° W 22:29:32 53° W 22:33:54 10° N
Cosmos 1072 Rocket 4.5 22:25:35 10° N 22:32:00 81° W 22:33:20 58° S
ALOS 2 2.6 22:32:40 77° N 22:32:40 77° N 22:36:46 10° NNW
SJ 16-02 3.3 22:30:17 10° NNE 22:33:28 19° ENE 22:34:22 18° ENE
Cosmos 1441 Rocket 4.0 22:38:21 51° N 22:38:21 51° N 22:41:19 10° N
Cosmos 1980 4.0 22:35:59 44° WSW 22:37:34 60° WNW 22:43:12 10° NNE
Cosmos 1703 3.9 22:39:40 54° NNW 22:39:40 54° NNW 22:42:50 10° N
Spot 4 4.4 22:39:08 45° W 22:39:08 45° W 22:43:41 10° NNW
Meteor 2-1 Rocket 4.0 22:36:08 10° NNW 22:41:40 81° W 22:42:13 71° SSW
Nimbus 7 Rocket 4.3 22:35:48 10° NNE 22:41:51 78° ESE 22:42:52 63° S
Cosmos 1943 Rocket 3.8 22:37:44 10° N 22:42:19 26° NE 22:45:01 18° E
Cosmos 1503 Rocket 4.1 22:38:21 10° NNW 22:43:40 63° WSW 22:43:52 62° WSW
USA 215 4.2 22:38:43 10° NE 22:44:52 45° NNW 22:51:00 10° W
USA 32 4.2 22:45:43 10° N 22:50:54 57° E 22:51:17 56° ESE
Cosmos 1626 Rocket 3.7 22:59:58 70° NNW 22:59:58 70° NNW 23:04:03 10° N
Cosmos 1464 Rocket 4.4 22:54:40 10° NNW 23:00:48 52° W 23:02:03 46° SW
Cosmos 1867 4.5 22:57:24 10° NW 23:01:49 34° W 23:01:49 34° W
Cosmos 1607 3.9 22:57:58 10° NW 23:04:19 69° WSW 23:05:04 62° SSW
Thor Agena Rocket 3.4 22:59:04 10° NNE 23:04:21 86° ESE 23:04:38 80° S
Cosmos 1602 Rocket 3.7 23:06:53 74° NNE 23:06:53 74° NNE 23:10:58 10° N
SL-16 R/B 2.0 23:06:18 72° SSE 23:06:46 78° ESE 23:12:27 10° NNE
PSLV R/B 3.9 23:06:04 10° NNE 23:09:53 61° ENE 23:09:53 61° ENE
Cosmos 1634 Rocket 4.2 23:04:36 10° N 23:10:52 61° E 23:12:25 48° SE
Cosmos 2237 Rocket 3.4 23:09:08 25° W 23:11:24 35° WNW 23:16:31 10° N
Cosmos 1758 Rocket 3.9 23:14:18 58° ENE 23:14:18 58° ENE 23:18:15 10° NNE
NOSS 2-3 (D) 4.5 23:15:21 38° ENE 23:15:21 38° ENE 23:18:34 10° NE
USA 267 3.1 23:14:47 48° SE 23:16:51 81° SW 23:23:26 10° NW
Meteor 1-4 Rocket 4.2 23:14:47 10° NNW 23:16:45 30° NNW 23:16:45 30° NNW
Cosmos 2369 Rocket 3.8 23:19:52 10° N 23:24:54 30° ENE 23:28:37 16° ESE
NOSS 2-3 (C) 3.8 23:31:45 62° NE 23:31:45 62° NE 23:35:40 10° NE
Cosmos 1777 Rocket 4.2 23:28:20 10° NNW 23:33:25 54° W 23:33:25 54° W
Cosmos-2242 3.2 23:29:15 10° N 23:33:23 70° NE 23:33:23 70° NE
Cosmos 1408 3.8 23:37:17 38° NE 23:37:17 38° NE 23:39:54 10° NNE
Cosmos 2297 3.5 23:40:11 10° NNW 23:45:50 78° WSW 23:46:30 68° S
Cosmos 1812 Rocket 4.3 23:41:44 10° NNW 23:45:17 42° WNW 23:45:17 42° WNW
Cosmos 2278 Rocket 4.0 23:42:40 10° WNW 23:45:51 17° W 23:45:51 17° W
Meteor 1-27 4.0 23:44:04 10° N 23:49:38 83° W 23:50:26 66° S
Cosmos 724 4.3 23:43:53 10° NW 23:50:01 72° WSW 23:50:57 61° S
Meteor 2-13 Rocket 4.5 23:50:34 53° SSE 23:52:00 74° E 23:58:10 10° NNE
